Snowfall_Accumulation
0.0 0.0 0.0 0.0 0.0 0.0 0.0 0.0 0.2 0.2 0.0 0.0 0.0 0.0 0.0 0.0 0.0 0.0 0.0 nan nan nan nan nan nan nan nan nan nan nan nan nan nan nan nan nan nan nan
0.0 0.0 0.0 0.0 0.0 0.0 0.0 0.0 0.0 0.3 0.2 0.0 0.0 0.0 0.0 0.0 0.0 0.0 0.0 nan nan nan nan nan nan nan nan nan nan nan nan nan nan nan nan nan nan nan
0.0 0.0 0.0 0.0 0.0 0.0 0.0 0.0 0.0 0.1 0.4 0.0 0.0 0.0 0.0 0.0 0.0 0.0 0.0 0.0 0.0 nan nan nan nan nan nan nan nan nan nan nan nan nan nan nan nan nan
0.0 0.0 0.0 0.0 0.0 0.0 0.0 0.0 0.0 0.0 0.1 0.0 0.0 0.0 0.0 0.0 0.0 0.0 0.0 0.0 0.0 nan nan nan nan nan nan nan nan nan nan nan nan nan nan nan nan nan
0.0 0.0 0.0 0.0 0.0 0.0 0.0 0.0 0.0 0.0 0.0 0.1 0.0 0.0 0.0 0.0 0.0 0.0 0.0 0.0 0.0 nan nan nan nan nan nan nan nan nan nan nan nan nan nan nan nan nan
0.0 0.0 0.0 0.0 0.0 0.0 0.0 0.0 0.0 0.0 0.0 0.0 0.0 0.0 0.0 0.0 0.0 0.0 0.0 0.0 0.0 0.0 nan nan nan nan nan nan nan nan nan nan nan nan nan nan nan nan
0.0 0.0 0.0 nan nan nan 0.0 0.0 0.0 0.0 0.0 0.0 0.0 0.0 0.1 0.0 0.0 0.0 0.0 0.0 0.0 0.0 0.0 0.0 0.0 0.0 0.0 nan nan nan nan nan nan nan nan nan nan nan
0.1 0.0 0.0 0.0 0.0 nan nan nan nan 0.0 0.0 0.0 0.0 0.0 0.0 0.1 0.0 0.0 0.0 0.0 0.0 0.0 0.0 0.0 0.0 0.0 0.0 0.0 nan nan nan nan nan nan nan nan nan nan
0.1 0.1 0.0 0.0 nan 0.0 nan nan nan nan nan 0.0 0.0 0.0 0.0 0.0 0.1 0.1 0.0 0.0 0.0 0.0 0.0 0.0 0.0 0.0 0.0 0.0 nan nan nan nan nan nan nan nan nan nan
0.0 0.0 0.0 0.0 0.0 0.0 0.0 0.0 0.0 0.0 0.0 0.0 0.0 0.0 0.0 0.0 0.0 0.0 0.0 0.0 0.0 0.0 0.0 0.2 0.0 0.0 0.0 0.0 nan nan nan nan nan nan nan nan nan nan
0.0 0.0 0.0 0.0 nan nan 0.0 0.1 0.0 0.0 nan nan nan nan nan nan nan 0.0 0.1 0.3 0.1 0.0 0.0 0.1 0.0 0.0 0.0 0.0 0.0 nan nan nan nan nan nan nan nan nan
0.0 0.0 nan 0.0 nan nan 0.0 0.0 0.1 0.0 0.0 0.0 0.0 0.0 nan nan nan 0.0 0.0 0.3 0.5 0.6 0.0 0.4 0.3 0.3 0.9 0.3 0.0 0.0 0.0 nan nan nan nan nan nan 0.0
0.1 0.0 0.0 nan nan nan nan 0.1 0.0 0.0 0.0 0.0 0.0 0.0 0.0 0.0 0.0 0.0 0.0 0.1 0.4 0.7 0.0 0.5 1.7 1.0 1.6 1.1 0.4 0.3 0.0 0.0 0.0 0.0 nan nan nan 0.0
1.0 0.1 0.0 nan nan nan nan nan nan nan 0.0 0.0 0.0 0.1 0.1 0.1 0.1 0.1 0.0 0.0 0.1 0.1 0.0 0.0 5.9 1.1 3.9 3.2 1.3 0.4 0.4 0.2 0.2 0.3 0.2 nan nan nan
0.1 0.1 nan nan nan nan nan nan nan 0.0 0.0 0.2 0.2 0.3 0.2 0.2 0.1 0.3 0.1 0.1 0.1 0.1 0.0 0.1 1.3 1.3 1.9 3.6 2.6 1.4 1.2 0.6 0.5 0.7 0.5 0.4 0.3 0.2
nan 0.1 nan 0.0 nan nan 0.0 0.0 0.0 0.0 0.0 0.2 0.3 0.3 0.5 0.7 0.6 0.7 1.7 1.2 2.2 1.9 0.7 0.4 0.5 0.3 4.5 1.9 2.2 2.0 1.0 3.4 0.8 0.7 0.6 0.4 0.3 0.2
nan 0.8 1.3 1.0 0.9 0.5 0.5 0.5 0.5 0.3 0.5 0.4 0.6 0.7 0.8 0.8 1.0 0.8 1.4 2.1 3.6 3.1 4.3 3.4 1.0 0.6 1.6 1.5 4.7 1.1 1.0 1.5 0.6 1.1 1.2 0.9 0.3 0.3
1.9 2.6 3.3 2.9 2.1 1.1 1.0 1.2 0.9 0.7 0.7 0.9 1.1 1.1 1.5 1.5 1.9 2.3 1.9 2.1 3.1 2.4 3.6 4.1 4.5 5.6 3.6 1.8 1.4 1.3 1.1 1.4 0.9 0.8 1.0 3.1 1.5 0.3
2.6 3.2 4.3 4.7 4.7 3.4 2.2 2.0 2.3 1.1 0.2 2.0 2.2 2.0 2.1 2.3 2.6 3.3 2.9 2.0 2.6 2.3 2.7 3.6 4.4 5.0 8.1 5.6 1.1 nan 4.0 1.9 1.9 1.6 0.7 1.6 2.6 0.9
3.7 3.8 4.1 5.3 6.2 6.0 4.8 4.2 2.7 2.3 2.1 2.0 2.4 2.7 3.4 4.4 4.7 4.0 3.0 3.9 3.2 3.8 4.5 4.0 4.6 5.0 7.9 7.2 10.3 3.4 nan 2.7 2.5 2.8 4.6 1.1 0.6 nan
3.8 5.1 4.0 4.9 6.8 6.9 6.0 4.9 4.1 3.7 3.4 4.7 3.5 3.7 3.3 4.1 4.0 2.6 2.4 1.8 nan 3.9 5.8 4.0 2.4 nan 8.6 7.1 9.3 3.4 1.8 nan 0.4 4.4 5.0 5.6 3.4 1.4
3.6 4.5 5.7 4.5 5.4 6.8 7.1 7.0 7.4 6.6 5.4 4.3 4.7 4.2 3.4 3.4 4.1 2.7 1.9 3.3 2.4 2.5 4.3 3.8 4.1 4.8 8.2 6.0 5.5 5.6 3.8 1.8 nan nan nan nan 13.6 21.1
3.8 3.7 4.9 5.5 4.7 5.5 6.7 8.4 9.3 8.8 7.7 7.1 6.7 5.1 4.2 6.0 2.1 2.1 2.3 2.5 3.7 4.8 4.5 7.6 5.6 5.1 4.9 5.7 9.6 8.5 6.6 4.7 3.9 4.6 4.3 nan nan nan
Water_Equivalent
0.00 0.00 0.00 0.00 0.00 0.00 0.01 0.01 0.06 0.04 0.00 0.00 0.00 0.00 0.00 0.00 0.00 0.00 0.00 nan nan nan nan nan nan nan nan nan nan nan nan nan nan nan nan nan nan nan
0.00 0.00 0.00 0.00 0.00 0.00 0.00 0.00 0.01 0.07 0.05 0.00 0.00 0.00 0.00 0.00 0.00 0.00 0.00 nan nan nan nan nan nan nan nan nan nan nan nan nan nan nan nan nan nan nan
0.00 0.00 0.00 0.00 0.00 0.00 0.00 0.00 0.01 0.02 0.09 0.00 0.00 0.00 0.00 0.00 0.00 0.00 0.00 0.00 0.00 nan nan nan nan nan nan nan nan nan nan nan nan nan nan nan nan nan
0.00 0.00 0.00 0.00 0.00 0.00 0.00 0.00 0.01 0.00 0.02 0.00 0.00 0.00 0.00 0.00 0.00 0.00 0.00 0.00 0.00 nan nan nan nan nan nan nan nan nan nan nan nan nan nan nan nan nan
0.00 0.00 0.00 0.00 0.00 0.00 0.00 0.00 0.00 0.00 0.00 0.02 0.01 0.00 0.00 0.00 0.00 0.00 0.00 0.00 0.00 nan nan nan nan nan nan nan nan nan nan nan nan nan nan nan nan nan
0.00 0.00 0.00 0.00 0.00 0.00 0.00 0.00 0.00 0.00 0.00 0.00 0.00 0.01 0.00 0.00 0.00 0.00 0.00 0.00 0.00 0.00 nan nan nan nan nan nan nan nan nan nan nan nan nan nan nan nan
0.00 0.00 0.00 nan nan nan 0.00 0.00 0.00 0.00 0.00 0.00 0.00 0.02 0.02 0.00 0.00 0.00 0.00 0.00 0.00 0.00 0.00 0.00 0.00 0.00 0.00 nan nan nan nan nan nan nan nan nan nan nan
0.01 0.00 0.00 0.00 0.00 nan nan nan nan 0.00 0.00 0.00 0.00 0.00 0.01 0.04 0.00 0.00 0.00 0.00 0.00 0.00 0.00 0.00 0.00 0.00 0.00 0.00 nan nan nan nan nan nan nan nan nan nan
0.02 0.01 0.00 0.00 nan 0.00 nan nan nan nan nan 0.00 0.00 0.00 0.00 0.00 0.02 0.02 0.00 0.00 0.00 0.00 0.00 0.00 0.00 0.00 0.00 0.00 nan nan nan nan nan nan nan nan nan nan
0.00 0.00 0.00 0.00 0.00 0.00 0.00 0.00 0.00 0.00 0.00 0.00 0.00 0.00 0.00 0.00 0.00 0.02 0.01 0.00 0.00 0.00 0.00 0.07 0.00 0.00 0.00 0.00 nan nan nan nan nan nan nan nan nan nan
0.00 0.00 0.00 0.00 nan nan 0.00 0.01 0.00 0.00 nan nan nan nan nan nan nan 0.00 0.04 0.11 0.05 0.00 0.00 0.03 0.00 0.00 0.00 0.00 0.00 nan nan nan nan nan nan nan nan nan
0.00 0.00 nan 0.00 nan nan 0.00 0.00 0.01 0.00 0.00 0.00 0.00 0.00 nan nan nan 0.00 0.00 0.12 0.19 0.24 0.01 0.18 0.12 0.14 0.36 0.10 0.00 0.00 0.00 nan nan nan nan nan nan 0.00
0.02 0.00 0.00 nan nan nan nan 0.02 0.01 0.00 0.00 0.00 0.00 0.00 0.00 0.00 0.00 0.00 0.00 0.03 0.17 0.26 0.01 0.19 0.67 0.40 0.61 0.43 0.16 0.10 0.00 0.00 0.00 0.00 nan nan nan 0.00
0.18 0.02 0.00 nan nan nan nan nan nan nan 0.00 0.00 0.00 0.03 0.05 0.05 0.04 0.03 0.00 0.01 0.02 0.02 0.00 0.01 2.32 0.43 1.37 1.02 0.43 0.17 0.15 0.06 0.06 0.10 0.09 nan nan nan
0.02 0.01 nan nan nan nan nan nan nan 0.00 0.00 0.08 0.08 0.10 0.09 0.09 0.05 0.11 0.03 0.03 0.04 0.03 0.00 0.04 0.53 0.50 0.75 1.17 0.80 0.45 0.42 0.23 0.20 0.27 0.18 0.14 0.13 0.08
nan 0.03 nan 0.01 nan nan 0.00 0.00 0.00 0.00 0.01 0.06 0.11 0.12 0.19 0.28 0.24 0.27 0.65 0.47 0.79 0.67 0.23 0.16 0.19 0.10 1.40 0.64 0.70 0.57 0.32 1.02 0.28 0.23 0.22 0.15 0.10 0.07
nan 0.15 0.31 0.20 0.19 0.12 0.14 0.10 0.10 0.10 0.16 0.15 0.24 0.27 0.28 0.28 0.35 0.32 0.52 0.75 1.12 0.93 1.11 0.97 0.28 0.20 0.52 0.47 1.22 0.32 0.30 0.45 0.24 0.39 0.37 0.28 0.12 0.12
0.39 0.54 0.72 0.75 0.55 0.35 0.29 0.38 0.29 0.25 0.25 0.30 0.37 0.39 0.51 0.51 0.64 0.79 0.70 0.70 0.90 0.68 0.93 1.04 1.15 1.31 0.92 0.48 0.49 0.38 0.32 0.40 0.32 0.30 0.32 0.78 0.40 0.10
0.49 0.62 0.80 1.05 1.16 1.01 0.64 0.59 0.69 0.36 0.07 0.71 0.73 0.67 0.71 0.78 0.91 1.06 0.93 0.63 0.72 0.66 0.73 0.92 1.06 1.23 1.66 1.05 0.31 nan 1.05 0.59 0.54 0.43 0.23 0.42 0.62 0.29
0.63 0.62 0.73 0.93 1.26 1.33 1.29 1.20 0.83 0.70 0.70 0.69 0.79 0.89 1.11 1.40 1.42 1.13 0.90 1.09 0.85 0.97 1.09 1.02 1.13 1.30 2.04 1.78 1.96 0.73 nan 0.70 0.65 0.64 0.96 0.30 0.19 nan
0.63 0.85 0.65 0.82 1.22 1.38 1.37 1.45 1.28 1.23 1.21 1.57 1.15 1.24 1.13 1.34 1.18 0.81 0.72 0.54 nan 0.98 1.23 0.86 0.66 nan 2.26 1.74 1.62 0.59 0.43 nan 0.11 1.18 1.21 1.04 0.68 0.34
0.58 0.75 0.97 0.80 0.95 1.30 1.57 1.82 2.13 2.04 1.82 1.42 1.49 1.38 1.11 1.08 1.21 0.82 0.56 0.90 0.59 0.69 1.08 0.99 1.01 1.23 1.82 1.32 1.01 0.80 0.61 0.38 nan nan nan nan 2.68 3.44
0.62 0.63 0.86 1.00 0.94 1.12 1.46 2.01 2.33 2.37 2.07 2.22 2.09 1.57 1.32 1.57 0.63 0.61 0.64 0.66 0.92 1.13 1.05 1.44 1.15 1.10 0.98 1.18 1.66 1.24 0.86 0.65 0.65 0.77 0.80 nan nan nan
SL_Ratio
5.0 nan nan nan nan 2.5 2.8 3.5 3.8 3.8 nan nan nan nan nan nan nan nan nan nan nan nan nan nan nan nan nan nan nan nan nan nan nan nan nan nan nan nan
5.0 5.0 nan nan nan nan 7.5 2.5 3.2 4.1 4.0 nan nan nan nan nan nan nan nan nan nan nan nan nan nan nan nan nan nan nan nan nan nan nan nan nan nan nan
5.0 5.0 nan nan nan nan nan 2.5 2.8 3.1 4.5 5.0 nan nan nan nan nan nan nan nan nan nan nan nan nan nan nan nan nan nan nan nan nan nan nan nan nan nan
10.0 7.5 nan nan nan nan nan nan 3.1 4.0 3.7 5.7 0.0 nan nan nan nan nan nan nan nan nan nan nan nan nan nan nan nan nan nan nan nan nan nan nan nan nan
6.3 7.0 6.7 5.0 nan nan nan nan nan nan 5.0 3.8 3.5 nan nan nan nan nan nan nan nan nan nan nan nan nan nan nan nan nan nan nan nan nan nan nan nan nan
8.3 7.5 5.0 nan nan nan nan nan nan nan 5.0 nan 2.9 3.8 nan nan nan nan nan nan nan nan nan nan nan nan nan nan nan nan nan nan nan nan nan nan nan nan
nan nan nan nan nan nan nan nan nan nan 5.0 4.3 5.0 2.8 4.1 nan nan nan nan nan nan nan nan nan nan nan nan nan nan nan nan nan nan nan nan nan nan nan
7.3 7.5 5.0 nan nan nan nan nan nan 5.0 nan 5.0 3.0 4.0 2.8 3.1 3.3 nan nan nan 2.5 nan nan nan nan nan nan nan nan nan nan nan nan nan nan nan nan nan
7.5 7.1 7.5 nan nan nan nan nan nan nan nan nan nan nan nan 3.3 2.7 2.6 nan nan nan nan nan nan nan nan nan nan nan nan nan nan nan nan nan nan nan nan
5.0 nan nan nan nan nan nan nan nan nan nan nan nan nan nan nan 5.0 2.5 3.1 nan nan nan nan 2.5 nan nan nan nan nan nan nan nan nan nan nan nan nan nan
nan nan nan nan nan nan 5.0 6.9 nan nan nan nan nan nan nan nan nan nan 3.1 2.6 2.6 nan nan 2.5 3.0 nan nan nan nan nan nan nan nan nan nan nan nan nan
nan nan nan nan nan nan 3.8 6.0 6.7 nan nan nan nan nan nan nan nan nan 3.0 2.8 2.5 2.5 2.6 2.5 2.5 2.5 2.5 2.5 2.1 nan nan nan nan nan nan nan nan nan
3.9 3.3 nan nan nan nan nan 6.2 5.4 nan nan nan nan nan nan nan nan nan nan 2.5 2.5 2.5 2.4 2.5 2.5 2.5 2.6 2.6 2.5 2.5 2.5 nan nan nan nan nan nan nan
5.8 6.8 nan nan nan nan nan nan nan nan 10.0 5.0 3.8 2.6 2.5 2.5 2.5 2.6 nan 2.5 2.6 2.5 2.9 2.5 2.5 2.6 2.8 3.1 3.0 2.5 2.6 2.5 2.5 2.5 2.5 nan nan nan
5.0 6.4 nan nan nan nan nan nan nan nan 5.0 2.8 2.5 2.5 2.5 2.5 2.5 2.5 2.7 2.7 2.5 2.8 nan 2.5 2.5 2.5 2.6 3.1 3.3 3.1 2.9 2.7 2.7 2.6 2.7 2.7 2.6 2.5
nan 4.6 nan 6.3 nan nan 5.0 nan nan nan 2.8 2.5 2.5 2.5 2.5 2.5 2.5 2.5 2.6 2.5 2.7 2.9 3.0 2.5 2.5 2.5 3.2 3.0 3.1 3.5 3.0 3.4 2.7 2.8 2.8 2.6 2.8 2.9
nan 5.0 4.3 5.1 4.9 4.6 3.7 4.7 4.8 3.3 2.9 2.6 2.7 2.7 2.8 2.7 2.8 2.6 2.7 2.9 3.2 3.4 3.9 3.5 3.7 3.1 3.1 3.2 3.8 3.3 3.5 3.2 2.5 2.7 3.2 3.2 2.5 3.0
4.8 4.8 4.5 3.9 3.9 3.2 3.6 3.2 2.9 2.9 2.8 2.8 3.0 2.9 2.9 3.0 3.0 2.9 2.7 3.0 3.4 3.5 3.9 3.9 3.9 4.3 3.9 3.7 3.0 3.5 3.4 3.4 2.7 2.8 3.1 4.0 3.7 2.7
5.3 5.2 5.4 4.5 4.1 3.4 3.4 3.4 3.4 3.1 3.2 2.8 3.0 3.0 3.0 3.0 2.9 3.1 3.1 3.2 3.6 3.6 3.7 3.9 4.1 4.1 4.9 5.4 3.6 nan 3.8 3.2 3.4 3.7 3.2 3.8 4.1 3.0
5.8 6.1 5.7 5.7 4.9 4.5 3.7 3.5 3.3 3.2 3.1 3.0 3.0 3.0 3.0 3.1 3.3 3.6 3.3 3.6 3.7 3.9 4.1 3.9 4.1 3.8 3.9 4.0 5.3 4.6 nan 3.8 3.7 4.3 4.8 3.7 3.2 nan
6.0 6.0 6.1 5.9 5.6 5.0 4.3 3.4 3.3 3.0 2.8 3.0 3.0 3.0 3.0 3.0 3.4 3.2 3.3 3.3 nan 4.0 4.7 4.7 3.6 nan 3.8 4.1 5.8 5.7 4.2 nan 3.8 3.7 4.1 5.4 5.0 4.2
6.2 6.0 5.9 5.7 5.6 5.2 4.5 3.9 3.5 3.3 3.0 3.1 3.2 3.0 3.0 3.1 3.4 3.3 3.4 3.7 4.0 3.7 4.0 3.9 4.1 3.9 4.5 4.5 5.4 7.0 6.3 4.8 nan nan nan nan 5.1 6.1
6.0 5.9 5.7 5.5 5.0 4.9 4.6 4.2 4.0 3.7 3.7 3.2 3.2 3.2 3.2 3.8 3.4 3.4 3.5 3.8 4.0 4.3 4.2 5.3 4.9 4.6 4.9 4.8 5.8 6.9 7.7 7.2 6.0 6.0 5.3 nan nan nan